Date,TemperatureHighF,TemperatureAvgF,TemperatureLowF,DewpointHighF,DewpointAvgF,DewpointLowF,HumidityHigh,HumidityAvg,HumidityLow,PressureMaxIn,PressureMinIn,WindSpeedMaxMPH,WindSpeedAvgMPH,GustSpeedMaxMPH,PrecipitationSumIn
2012-1-1,44,36,30,42,35,30,100,97,80,29.56,29.02,23,4,23,0.14
2012-1-2,43,34,20,43,24,11,100,67,53,29.25,29.01,25,8,26,0.00
2012-1-3,20,10,1,12,4,-6,100,76,48,29.66,29.24,21,6,23,0.00
2012-1-4,18,8,1,10,4,0,100,83,67,29.68,29.33,23,5,23,0.00
2012-1-5,25,20,16,23,16,10,100,84,70,29.40,29.25,28,7,29,0.01
2012-1-6,42,30,18,28,24,15,100,80,56,29.38,29.17,28,10,28,0.00
2012-1-7,46,37,30,36,31,26,97,81,57,29.41,29.15,21,3,26,0.00
2012-1-8,36,31,26,33,25,20,98,77,65,29.67,29.40,13,2,14,0.00
2012-1-9,33,32,31,20,18,16,61,55,51,29.51,29.36,20,9,20,0.00
2012-1-10,40,32,20,29,22,15,81,66,50,29.53,29.25,26,7,27,0.00
2012-1-11,23,18,14,19,16,12,100,90,76,29.66,29.49,13,1,16,0.00
2012-1-12,34,29,19,32,28,19,100,96,78,29.50,28.97,26,3,27,0.03
2012-1-13,36,30,23,35,27,19,100,88,70,29.03,28.57,30,9,30,0.17
2012-1-14,28,10,-1,22,7,-2,100,89,71,29.64,29.03,22,4,23,0.00
2012-1-15,8,1,-4,3,-1,-5,100,92,72,30.07,29.64,15,2,17,0.00
2012-1-16,27,10,-5,19,3,-6,100,74,48,30.07,29.49,20,4,22,0.00
2012-1-17,42,31,25,39,29,20,99,95,75,29.50,28.79,25,8,26,0.23
2012-1-18,44,22,8,41,12,3,93,66,50,29.71,28.81,32,7,35,0.08
2012-1-19,24,16,6,22,9,3,100,75,46,29.72,29.36,18,2,18,0.02
2012-1-20,24,17,8,24,8,-1,100,70,38,29.82,29.35,14,4,21,0.00
2012-1-21,18,11,8,13,8,0,100,88,64,29.88,29.68,11,0,11,0.00
2012-1-22,26,15,5,18,9,5,100,80,44,30.05,29.86,22,3,22,0.00
2012-1-23,45,34,24,43,30,16,96,85,72,29.86,29.27,22,7,22,0.39
2012-1-24,45,41,34,44,35,25,95,79,64,29.55,29.25,23,9,23,0.01
2012-1-25,33,31,25,27,23,21,84,72,67,29.75,29.57,20,4,20,0.00
2012-1-26,34,28,22,28,24,19,100,85,67,29.74,29.35,10,2,10,0.00
2012-1-27,42,36,28,42,32,26,100,88,68,29.35,28.77,28,6,28,0.85
2012-1-28,40,35,30,31,26,23,88,71,59,29.48,29.23,22,5,22,0.00
2012-1-29,37,31,27,29,22,15,99,70,46,29.50,29.31,26,7,26,0.00
2012-1-30,32,25,19,28,16,9,100,71,48,29.75,29.41,26,4,29,0.00
2012-1-31,24,22,21,22,20,14,100,92,68,29.72,29.59,15,2,15,0.00
2012-2-1,46,46,46,32,32,32,58,58,58,29.34,29.34,13,13,25,0.00
2012-2-2,24,19,15,21,17,14,100,89,83,29.84,29.63,19,5,19,0.00
2012-2-3,32,22,13,24,17,13,100,82,57,29.94,29.74,11,1,12,0.00
2012-2-4,29,23,14,27,17,11,100,80,52,29.82,29.68,16,2,16,0.00
2012-2-5,32,21,11,20,15,10,100,79,57,29.73,29.51,16,2,16,0.00
2012-2-6,51,36,26,28,22,18,79,59,33,29.51,29.32,23,8,24,0.00
2012-2-7,38,27,15,28,19,8,80,71,61,29.80,29.40,16,4,21,0.00
2012-2-8,32,22,10,18,12,6,95,65,40,29.81,29.52,18,6,25,0.00
2012-2-9,47,33,20,23,16,11,83,52,30,29.57,29.49,19,5,21,0.00
2012-2-10,41,34,27,22,18,15,66,53,40,29.55,29.37,22,5,22,0.00
2012-2-11,31,16,6,27,13,5,100,91,60,29.39,29.27,19,4,19,0.00
2012-2-12,13,9,5,7,-1,-4,100,66,50,29.35,29.26,21,5,22,0.00
2012-2-13,38,25,12,23,13,2,100,65,32,29.41,29.26,19,4,20,0.00
2012-2-14,40,32,26,27,19,14,77,59,37,29.56,29.41,23,7,23,0.00
2012-2-15,42,35,30,35,30,26,97,83,62,29.77,29.56,15,1,15,0.02
2012-2-16,41,35,32,33,30,26,98,83,59,29.77,29.43,20,4,20,0.03
2012-2-17,43,37,33,36,27,20,97,69,41,29.45,29.37,22,6,23,0.01
2012-2-18,41,33,27,27,22,17,90,65,40,29.53,29.35,15,1,15,0.00
2012-2-19,36,27,21,26,18,14,90,71,46,29.63,29.53,14,1,17,0.00
2012-2-20,34,23,16,18,14,8,94,72,41,29.81,29.58,15,2,15,0.00
2012-2-21,39,30,14,32,18,13,100,66,42,29.83,29.28,20,3,21,0.00
2012-2-22,47,40,34,37,32,24,95,74,42,29.28,28.92,22,6,22,0.10
2012-2-23,42,35,29,37,29,24,97,82,52,29.26,28.86,21,2,23,0.00
2012-2-24,34,30,26,32,28,22,100,92,77,29.26,28.69,19,1,20,0.01
2012-2-25,70,30,19,33,21,10,99,70,55,29.42,28.63,27,8,27,0.17
2012-2-26,32,22,12,13,7,1,82,54,28,29.93,29.42,24,3,26,0.17
2012-2-27,42,29,15,31,19,6,94,66,49,29.93,29.50,20,3,20,0.04
2012-2-28,37,28,20,31,19,13,100,70,52,29.92,29.59,26,4,26,0.00
2012-2-29,30,25,20,26,20,15,100,81,63,29.90,29.38,8,0,9,0.00
2012-3-1,33,28,25,32,27,22,100,98,86,29.48,29.26,10,0,10,0.03
2012-3-2,38,31,26,30,25,21,90,81,69,29.55,29.26,25,4,25,0.13
2012-3-3,51,38,31,41,30,20,96,74,30,29.26,28.84,28,7,28,0.10
2012-3-4,37,28,15,29,23,15,100,82,52,29.20,29.06,18,4,21,0.00
2012-3-5,24,15,8,15,9,4,100,80,46,29.86,29.20,10,1,11,0.00
2012-3-6,34,21,4,17,8,3,100,62,29,30.09,29.86,17,3,19,0.00
2012-3-7,55,44,31,31,23,8,57,45,35,29.93,29.66,38,11,38,0.39
2012-3-8,61,52,41,52,41,29,94,67,42,29.67,29.16,21,10,32,0.06
2012-3-9,41,33,24,35,22,16,100,64,42,29.66,29.32,23,4,25,0.01
2012-3-10,35,27,21,25,21,17,100,80,52,30.03,29.66,17,3,20,0.02
2012-3-11,56,41,27,30,23,18,72,51,35,29.91,29.71,25,12,31,0.01
2012-3-12,62,52,38,37,31,26,65,46,31,29.80,29.58,14,4,18,0.00
2012-3-13,66,57,48,48,39,31,63,51,38,29.58,29.39,26,8,28,0.00
2012-3-14,55,45,36,42,36,33,95,73,54,29.78,29.48,17,3,19,0.00
2012-3-15,54,42,32,42,35,28,96,79,53,29.86,29.72,15,2,17,0.02
2012-3-16,46,43,40,43,41,35,94,91,83,29.77,29.59,24,4,24,0.07
2012-3-17,60,48,38,48,38,34,96,70,43,29.90,29.77,25,4,25,0.05
2012-3-18,74,60,46,50,45,39,89,61,41,29.80,29.64,26,12,27,0.01
2012-3-19,77,65,55,53,50,46,80,61,41,29.76,29.65,19,4,19,0.00
2012-3-20,81,65,49,56,51,44,94,64,37,29.85,29.75,15,3,15,0.00
2012-3-21,80,68,59,57,50,43,83,56,30,29.91,29.77,17,7,17,0.00
2012-3-22,79,64,58,56,54,51,90,72,39,29.78,29.65,21,9,21,0.00
2012-3-23,66,56,47,56,37,24,89,52,26,29.80,29.68,18,5,18,0.00
2012-3-24,48,41,37,29,24,16,71,51,35,29.74,29.54,16,3,17,0.00
2012-3-25,47,43,38,44,39,28,95,87,61,29.54,29.26,17,6,18,0.18
2012-3-26,45,32,26,43,19,0,99,61,33,29.67,29.20,34,11,34,0.17
2012-3-27,40,28,20,11,4,-2,50,36,17,29.86,29.64,28,7,29,0.00
2012-3-28,49,40,30,42,25,-2,91,55,21,29.63,29.05,31,6,31,0.01
2012-3-29,41,35,31,39,32,27,98,88,72,29.50,29.12,18,5,18,0.00
2012-3-30,44,34,26,29,17,11,86,50,28,29.65,29.49,20,5,21,0.00
2012-3-31,50,37,31,30,23,18,73,57,38,29.57,29.42,12,2,12,0.00
2012-4-1,46,37,27,36,27,17,95,69,44,29.42,29.19,15,2,16,0.00
2012-4-2,49,39,33,34,25,10,98,63,28,29.39,29.20,26,6,30,0.01
2012-4-3,52,40,27,21,16,10,59,39,23,29.48,29.27,19,4,19,0.00
2012-4-4,54,43,36,35,26,17,78,51,32,29.28,29.08,29,6,31,0.02
2012-4-5,40,36,31,33,25,20,97,65,48,29.44,29.23,22,6,22,0.02
2012-4-6,48,40,33,23,20,13,64,47,31,29.57,29.44,19,6,20,0.00
2012-4-7,47,40,34,23,19,13,61,42,32,29.62,29.53,20,4,22,0.00
2012-4-8,54,44,36,30,26,23,65,50,36,29.55,29.06,14,3,15,0.00
2012-4-9,47,44,42,35,34,28,75,67,48,29.10,28.98,22,9,22,0.00
2012-4-10,49,44,41,35,33,30,76,66,52,29.28,29.06,22,8,22,0.00
2012-4-11,53,43,37,37,33,29,89,69,44,29.48,29.28,17,3,19,0.01
2012-4-12,54,45,38,36,32,26,91,61,36,29.64,29.48,25,5,25,0.00
2012-4-13,63,49,35,37,28,20,77,47,21,29.73,29.61,15,2,16,0.00
2012-4-14,67,55,42,31,26,19,52,34,17,29.69,29.51,22,5,22,0.00
2012-4-15,68,62,54,55,45,28,76,55,31,29.53,29.45,24,9,26,0.00
2012-4-16,85,72,60,60,55,46,93,59,28,29.51,29.35,28,10,28,0.00
2012-4-17,76,60,42,58,36,22,65,43,23,29.80,29.40,27,8,27,0.00
2012-4-18,56,43,31,30,26,21,72,52,33,29.89,29.65,15,4,17,0.00
2012-4-19,70,54,32,40,33,23,87,48,29,29.65,29.47,23,5,25,0.00
2012-4-20,76,58,47,52,44,36,89,59,34,29.53,29.31,24,3,24,0.00
2012-4-21,63,50,37,54,44,34,94,80,62,29.44,29.28,27,6,28,0.57
2012-4-22,38,35,32,37,33,29,98,92,87,29.51,29.32,23,7,25,0.63
2012-4-23,49,40,34,48,38,31,98,91,82,29.32,28.76,23,4,23,1.61
2012-4-24,50,44,39,44,37,29,98,75,47,29.16,28.79,31,5,31,0.22
2012-4-25,51,43,37,37,33,27,95,67,43,29.43,29.15,21,4,21,0.06
2012-4-26,56,45,34,45,35,28,96,71,36,29.45,29.09,19,5,20,0.37
2012-4-27,47,38,33,45,30,22,97,71,57,29.63,29.09,25,8,27,0.01
2012-4-28,50,39,29,23,20,14,74,48,27,29.72,29.62,20,4,20,0.00
2012-4-29,49,42,29,25,16,8,68,37,20,29.81,29.62,23,5,28,0.00
2012-4-30,57,47,33,33,23,13,53,40,29,29.93,29.65,11,2,11,0.00
2012-5-1,53,48,44,48,43,29,96,85,41,29.66,29.56,19,4,22,0.35
2012-5-2,62,53,47,50,47,44,96,80,62,29.72,29.64,18,6,20,0.04
2012-5-3,60,53,48,55,50,45,97,91,82,29.70,29.53,18,4,19,0.46
2012-5-4,72,60,53,64,56,48,98,89,71,29.59,29.45,23,5,29,0.37
2012-5-5,58,49,45,54,41,35,99,75,46,29.70,29.50,22,6,22,0.01
2012-5-6,63,51,40,39,33,26,75,53,27,29.73,29.64,19,4,19,0.00
2012-5-7,72,58,39,50,33,21,70,43,15,29.73,29.53,17,2,17,0.00
2012-5-8,62,53,49,55,50,47,98,90,65,29.55,29.33,23,6,28,0.83
2012-5-9,66,60,56,62,56,50,98,86,76,29.35,29.15,20,7,20,0.04
2012-5-10,56,52,50,53,51,49,99,96,83,29.15,29.05,9,1,9,0.01
2012-5-11,64,56,43,44,33,26,84,44,26,29.60,29.38,20,6,21,0.01
2012-5-12,80,62,42,47,38,29,66,44,25,29.71,29.59,17,4,17,0.00
2012-5-13,72,64,55,59,48,40,79,57,40,29.73,29.66,21,4,21,0.00
2012-5-14,70,60,51,59,54,47,96,82,58,29.72,29.63,22,5,23,0.01
2012-5-15,61,60,58,61,58,55,99,94,85,29.67,29.51,16,5,17,0.09
2012-5-16,74,62,56,64,58,44,99,87,56,29.51,29.32,28,6,28,0.10
2012-5-17,66,55,43,44,37,31,82,53,29,29.74,29.48,16,4,16,0.01
2012-5-18,72,58,40,48,38,28,88,51,20,29.84,29.71,12,3,14,0.04
2012-5-19,84,65,46,56,46,37,80,54,29,29.79,29.71,10,2,10,0.01
2012-5-20,86,72,54,62,54,48,93,57,32,29.86,29.73,18,2,18,0.02
2012-5-21,78,70,59,64,53,39,93,58,30,29.81,29.60,20,4,20,0.01
2012-5-22,75,67,62,65,62,58,96,83,66,29.60,29.42,14,3,14,0.13
2012-5-23,73,63,56,61,56,49,100,80,65,29.61,29.44,16,4,16,0.01
2012-5-24,77,67,55,66,60,49,98,79,62,29.76,29.61,21,4,21,0.00
2012-5-25,77,70,65,66,64,61,91,80,66,29.76,29.60,28,6,30,0.00
2012-5-26,81,71,61,67,57,49,96,66,35,29.74,29.61,19,4,24,0.00
2012-5-27,76,65,56,55,50,46,81,59,39,29.81,29.63,16,2,16,0.00
2012-5-28,84,71,57,64,56,48,78,60,47,29.61,29.40,15,2,15,0.00
2012-5-29,73,66,60,70,64,55,96,93,79,29.41,29.23,28,8,28,1.92
2012-5-30,78,69,61,65,57,45,96,68,48,29.33,29.25,23,6,23,0.00
2012-5-31,72,62,52,60,50,42,90,65,46,29.57,29.32,18,3,18,0.00
2012-6-1,70,60,48,56,49,42,91,67,42,29.67,29.48,13,2,13,0.00
2012-6-2,61,54,49,55,50,41,98,87,49,29.47,29.32,14,2,15,0.50
2012-6-3,70,58,51,61,52,45,100,84,51,29.33,29.22,15,2,16,0.85
2012-6-4,60,53,50,54,50,45,100,92,66,29.44,29.24,13,2,15,0.16
2012-6-5,66,56,48,55,50,47,100,83,56,29.51,29.41,18,4,20,0.01
2012-6-6,73,60,49,62,51,44,100,75,42,29.58,29.51,16,2,16,0.00
2012-6-7,74,63,51,62,51,40,99,69,32,29.58,29.48,16,3,16,0.00
2012-6-8,75,63,54,63,54,48,100,75,43,29.49,29.31,23,7,24,0.13
2012-6-9,78,64,49,64,53,47,100,73,37,29.55,29.38,13,2,16,0.00
2012-6-10,84,70,54,65,57,50,99,66,39,29.73,29.55,28,2,28,0.00
2012-6-11,82,73,65,67,61,55,83,67,56,29.79,29.69,24,8,24,0.00
2012-6-12,74,66,62,64,58,51,98,78,62,29.70,29.44,25,5,26,0.33
2012-6-13,72,66,57,65,57,50,99,74,54,29.74,29.41,16,5,18,0.10
2012-6-14,74,63,53,56,48,41,91,62,35,29.89,29.74,17,4,19,0.10
2012-6-15,81,67,54,57,51,44,86,60,32,29.95,29.85,14,3,14,0.00
2012-6-16,83,70,54,58,54,47,98,58,35,29.92,29.76,20,5,22,0.00
2012-6-17,79,69,60,61,57,53,83,67,47,29.77,29.60,23,6,23,0.00
2012-6-18,75,66,59,58,56,53,85,69,53,29.68,29.61,19,0,22,0.00
2012-6-19,77,68,61,67,61,56,87,78,68,29.67,29.55,27,0,27,0.00
2012-6-20,95,81,69,74,69,64,92,69,44,29.63,29.51,16,0,17,0.00
2012-6-21,96,82,71,70,65,59,82,57,36,29.51,29.36,1,0,1,0.00
2012-6-22,83,77,68,66,61,53,80,60,38,29.44,29.34,0,0,0,0.00
2012-6-23,74,68,61,65,59,55,96,74,60,29.57,29.44,0,0,0,0.00
2012-6-24,83,68,54,64,56,46,97,71,32,29.61,29.47,7,0,7,0.15
2012-6-25,73,62,52,65,58,49,97,87,65,29.47,29.29,7,0,9,0.28
2012-6-26,62,56,50,60,54,48,98,94,82,29.31,29.22,0,0,0,0.44
2012-6-27,68,62,56,60,56,53,98,82,62,29.36,29.18,0,0,0,0.11
2012-6-28,83,68,58,67,59,55,99,76,41,29.38,29.28,3,0,4,0.01
2012-6-29,88,74,62,71,60,49,96,64,28,29.28,29.16,6,0,9,0.02
2012-6-30,87,78,67,60,54,49,65,45,28,29.32,29.22,12,0,12,0.00
2012-7-1,83,74,62,67,61,56,97,67,48,29.48,29.31,9,0,9,0.19
2012-7-2,85,71,60,73,61,56,97,73,45,29.57,29.48,2,0,2,0.00
2012-7-3,84,71,56,70,59,52,98,68,36,29.59,29.40,0,0,0,0.00
2012-7-4,89,74,64,71,65,56,98,76,40,29.41,29.30,0,0,0,0.32
2012-7-5,78,69,61,65,61,58,98,78,54,29.52,29.37,0,0,0,0.00
2012-7-6,84,72,58,70,63,53,98,74,51,29.57,29.43,19,4,19,0.00
2012-7-7,82,74,67,73,66,60,94,79,54,29.46,29.40,13,2,13,0.00
2012-7-8,79,71,61,64,56,46,89,61,33,29.52,29.42,16,3,16,0.00
2012-7-9,77,67,54,66,50,40,94,60,27,29.61,29.51,19,4,20,0.00
2012-7-10,80,66,52,61,53,45,87,65,41,29.70,29.59,14,2,15,0.00
2012-7-11,87,71,55,68,55,47,97,62,26,29.82,29.69,12,2,12,0.00
2012-7-12,92,76,59,69,58,48,85,55,24,29.80,29.71,15,3,15,0.00
2012-7-13,94,77,64,68,57,46,81,52,21,29.81,29.71,12,2,13,0.00
2012-7-14,91,78,67,67,62,54,81,60,35,29.79,29.69,24,5,25,0.00
2012-7-15,86,76,69,71,66,62,96,73,51,29.72,29.50,19,6,19,0.03
2012-7-16,86,76,66,76,68,63,97,78,52,29.50,29.41,12,2,12,0.00
2012-7-17,95,75,70,71,68,63,96,81,36,29.41,29.20,37,7,37,1.32
2012-7-18,81,72,60,71,60,51,98,69,47,29.57,29.35,15,3,17,0.02
2012-7-19,75,65,55,64,53,47,97,66,42,29.66,29.57,15,3,19,0.00
2012-7-20,78,65,54,61,54,48,98,69,37,29.73,29.64,12,3,12,0.00
2012-7-21,83,70,53,66,56,51,98,65,36,29.73,29.62,18,4,18,0.00
2012-7-22,86,75,65,65,59,52,70,59,46,29.71,29.62,27,8,27,0.00
2012-7-23,86,74,67,70,65,60,96,74,51,29.64,29.29,37,10,40,0.58
2012-7-24,80,71,61,74,63,50,97,78,50,29.39,29.21,28,7,28,0.02
2012-7-25,80,67,58,60,55,51,84,67,40,29.55,29.37,14,4,16,0.00
2012-7-26,68,64,62,66,61,56,98,90,70,29.38,29.21,15,3,15,0.36
2012-7-27,80,69,63,68,61,54,98,78,53,29.54,29.24,13,3,15,0.09
2012-7-28,76,69,62,68,63,56,98,81,56,29.62,29.53,14,3,15,0.00
2012-7-29,85,72,63,65,62,54,96,72,41,29.66,29.57,18,3,19,0.00
2012-7-30,85,74,65,67,63,56,97,71,44,29.71,29.62,17,6,17,0.00
2012-7-31,85,75,67,69,62,52,92,68,35,29.66,29.50,23,6,23,0.00
2012-8-1,83,71,65,69,64,59,96,77,53,29.51,29.41,20,4,20,0.02
2012-8-2,89,74,61,73,64,58,99,74,46,29.51,29.42,14,3,15,0.00
2012-8-3,91,78,69,76,65,59,85,67,45,29.73,29.47,17,4,19,0.07
2012-8-4,92,77,64,74,65,60,98,70,40,29.81,29.72,25,4,25,0.00
2012-8-5,85,76,70,74,70,64,98,82,64,29.75,29.43,22,7,23,0.63
2012-8-6,81,70,61,69,58,53,98,69,44,29.64,29.51,19,4,19,0.00
2012-8-7,81,69,56,63,57,53,98,69,43,29.63,29.53,19,4,19,0.00
2012-8-8,88,72,59,67,59,54,95,66,37,29.62,29.53,12,2,13,0.00
2012-8-9,85,70,63,72,65,59,98,84,56,29.57,29.48,16,2,16,0.65
2012-8-10,76,69,65,72,63,53,98,82,65,29.49,29.41,16,2,16,1.18
2012-8-11,78,68,64,76,60,52,98,79,64,29.48,29.41,15,3,15,0.00
2012-9-7,69,59,51,47,43,40,83,57,42,29.37,29.27,13,6,13,0.24
2012-9-8,80,63,54,71,55,45,95,78,55,29.27,28.93,25,6,28,0.38
2012-9-9,77,66,54,61,56,52,97,72,49,29.34,29.15,14,2,19,0.00
2012-9-10,67,62,57,56,49,44,93,62,46,29.55,29.38,20,5,20,0.00
2012-9-11,75,62,49,57,51,46,97,69,43,29.69,29.54,12,3,12,0.00
2012-9-12,82,70,54,59,55,49,94,61,42,29.77,29.66,19,6,20,0.00
2012-9-13,85,76,66,64,60,56,75,59,46,29.78,29.67,20,8,21,0.00
2012-9-14,86,76,69,66,62,57,76,61,47,29.68,29.47,20,7,22,0.00
2012-9-15,70,62,53,60,51,43,93,67,45,29.55,29.45,18,4,19,0.02
2012-9-16,69,57,46,49,41,33,91,60,36,29.57,29.43,15,3,16,0.00
2012-9-17,76,61,44,57,50,43,100,71,48,29.48,29.41,20,5,20,0.00
2012-9-18,69,65,61,67,59,51,95,83,63,29.41,28.93,26,6,27,1.29
2012-9-19,66,57,46,65,46,34,95,69,33,29.62,29.05,23,5,23,0.09
2012-9-20,68,55,39,50,44,39,100,72,42,29.65,29.49,18,3,19,0.00
2012-9-21,75,63,52,59,52,47,95,69,51,29.51,29.40,18,4,19,0.00
2012-9-22,74,63,57,60,56,51,95,78,58,29.41,29.19,23,5,26,0.36
2012-9-23,65,57,47,58,46,39,98,71,41,29.50,29.22,18,4,18,0.01
2012-9-24,65,53,43,47,43,39,100,71,43,29.53,29.43,16,5,17,0.01
2012-9-25,70,59,48,48,44,40,81,59,42,29.48,29.42,29,11,29,0.00
2012-9-26,68,60,54,61,56,44,95,86,55,29.47,29.38,22,8,22,0.66
2012-9-27,63,54,44,53,46,40,99,78,46,29.67,29.46,17,3,17,0.02
2012-9-28,54,48,42,52,47,41,100,96,90,29.64,29.44,9,1,9,0.03
2012-9-29,56,53,52,54,48,42,94,84,70,29.45,29.35,15,2,15,0.04
2012-9-30,54,52,51,43,41,40,72,66,63,29.35,29.06,9,1,9,0.19
2012-10-1,63,57,51,59,53,40,93,87,66,29.35,29.00,19,6,22,0.24
2012-10-2,63,59,54,59,55,49,93,87,77,29.49,29.34,19,6,19,0.00
2012-10-3,64,60,55,55,50,46,85,69,59,29.57,29.47,8,0,8,0.20
2012-10-4,69,64,58,65,53,45,89,70,50,29.57,29.44,17,3,18,0.03
2012-10-5,73,65,57,63,58,50,93,80,60,29.45,29.31,22,8,23,0.00
2012-10-6,66,57,49,64,53,39,97,86,64,29.35,29.15,19,6,20,0.16
2012-10-7,56,48,42,47,42,35,100,81,49,29.49,29.35,17,2,17,0.16
2012-10-8,56,48,41,50,42,36,100,81,49,29.71,29.49,12,2,12,0.03
2012-10-9,59,49,37,50,44,37,100,84,58,29.73,29.53,16,2,16,0.03
2012-10-10,58,53,46,55,48,38,95,85,64,29.54,29.16,16,5,18,0.19
2012-10-11,47,46,45,45,43,39,96,90,78,29.27,29.25,14,4,14,0.00
2012-10-15,69,62,55,60,55,44,94,77,62,29.11,29.05,22,7,22,0.01
2012-10-16,55,46,36,45,37,34,100,72,51,29.35,29.07,20,5,20,0.00
2012-10-17,60,45,31,43,36,31,100,75,38,29.42,29.34,12,2,13,0.00
2012-10-18,68,56,42,47,42,37,100,61,39,29.46,29.39,22,4,23,0.00
2012-10-19,58,55,51,53,47,43,98,74,60,29.46,29.13,19,2,19,2.40
2012-10-20,71,60,52,65,49,39,97,67,48,29.17,29.07,23,4,23,0.00
2012-10-21,56,52,47,49,44,40,94,74,61,29.35,29.17,21,7,21,0.00
2012-10-22,64,53,45,49,42,39,92,67,41,29.48,29.34,18,4,19,0.00
2012-10-23,57,48,42,49,44,40,100,86,61,29.60,29.48,9,2,10,0.00
2012-10-24,58,46,40,46,41,38,100,84,47,29.66,29.58,9,1,9,0.00
2012-10-25,62,54,43,55,46,38,97,75,59,29.68,29.62,22,4,22,0.00
2012-10-26,60,57,55,56,55,54,99,93,82,29.64,29.56,16,3,16,0.00
2012-10-27,68,60,50,60,55,50,100,85,67,29.58,29.44,16,3,16,0.00
2012-10-28,58,54,50,55,52,42,100,95,55,29.48,29.31,13,2,14,0.00
2012-10-29,63,54,49,58,52,49,100,94,62,29.31,28.75,23,4,24,0.11
2012-10-30,70,62,54,59,54,48,98,79,48,28.98,28.75,14,3,24,0.17
2012-10-31,55,50,45,54,46,38,100,87,67,28.96,28.86,22,3,26,0.03
2012-11-1,47,45,43,46,43,41,100,94,86,28.94,28.90,19,5,19,0.01
2012-11-2,46,44,39,44,39,34,100,83,67,29.10,28.93,18,4,19,0.01
2012-11-3,48,42,40,40,36,32,100,81,55,29.31,29.10,12,2,13,0.00
2012-11-4,44,39,35,37,32,25,91,77,63,29.45,29.31,17,4,17,0.00
2012-11-5,39,34,29,27,23,18,81,65,44,29.59,29.43,17,5,17,0.00
2012-11-6,42,30,23,26,20,17,89,68,38,29.65,29.57,14,2,14,0.00
2012-11-7,35,30,23,31,26,21,100,87,62,29.62,29.39,18,3,19,0.00
2012-11-8,38,34,30,33,31,28,100,87,68,29.39,29.32,23,8,23,0.00
2012-11-9,49,39,27,36,31,26,100,75,42,29.54,29.37,13,2,13,0.00
2012-11-10,46,40,34,37,32,27,94,73,50,29.82,29.52,16,2,17,0.00
2012-11-11,62,53,37,45,39,27,82,59,48,29.80,29.72,29,9,30,0.00
2012-11-12,71,61,54,53,46,40,70,59,43,29.79,29.45,24,6,28,0.00
2012-11-13,64,42,30,54,37,27,100,85,57,29.90,29.43,24,4,28,0.38
2012-11-14,42,33,26,33,27,23,100,79,49,30.01,29.90,15,2,16,0.00
2012-11-15,38,31,26,32,29,25,100,90,70,29.92,29.77,7,1,7,0.00
2012-11-16,36,33,30,30,29,27,92,84,78,29.90,29.84,6,1,6,0.00
2012-11-17,45,35,27,34,31,26,100,85,56,30.11,29.90,10,1,10,0.00
2012-11-18,49,33,25,38,30,25,100,90,47,30.14,30.00,7,1,7,0.00
2012-11-19,51,34,23,35,30,23,100,86,47,30.00,29.68,13,1,13,0.00
2012-11-20,43,34,26,39,33,26,100,94,74,29.68,29.56,8,1,8,0.00
2012-11-21,55,41,31,42,32,25,100,76,34,29.65,29.58,13,1,13,0.00
2012-11-22,54,44,30,32,29,25,91,56,36,29.65,29.46,26,7,29,0.00
2012-11-23,56,48,42,36,33,30,70,56,41,29.46,29.07,32,11,33,0.00
2012-11-27,31,31,30,28,28,27,90,88,86,29.67,29.65,4,0,4,0.00
2012-11-28,37,33,26,33,28,21,100,80,59,29.65,29.49,17,3,17,0.00
2012-11-29,40,32,22,36,25,17,100,76,50,29.72,29.46,19,4,19,0.00
2012-11-30,22,17,12,22,14,12,100,89,77,29.92,29.72,14,2,16,0.00
2012-12-1,35,24,17,34,24,15,100,98,91,29.92,29.73,18,2,18,0.00
2012-12-2,48,42,35,46,42,34,100,99,86,29.73,29.29,26,6,26,2.37
2012-12-3,51,44,39,50,41,36,100,89,72,29.62,29.29,25,3,27,0.00
2012-12-4,55,48,39,55,47,38,100,97,86,29.60,29.22,27,6,27,0.00
2012-12-5,55,40,27,53,33,20,100,79,61,29.61,29.22,22,6,22,0.00
2012-12-6,36,28,23,24,21,19,89,74,54,29.75,29.55,19,4,20,0.00
2012-12-7,38,34,30,36,28,21,100,78,61,29.55,29.37,22,6,24,0.00
2012-12-8,45,38,34,45,38,34,100,100,96,29.38,29.14,23,3,25,0.00
2012-12-9,41,34,29,40,33,29,100,94,73,29.69,29.32,14,2,14,0.00
2012-12-10,51,40,29,49,39,29,100,97,85,29.42,28.84,25,4,25,0.00
2012-12-11,40,29,21,40,29,21,100,99,92,29.53,28.97,11,1,13,0.00
2012-12-12,39,31,19,32,26,19,100,85,67,29.75,29.53,14,3,14,0.00
2012-12-13,40,33,24,36,28,24,100,82,58,29.82,29.57,20,4,24,0.00
2012-12-14,43,36,30,32,29,27,95,77,57,29.59,29.41,27,7,30,0.00
2012-12-15,49,23,15,48,20,-69,100,89,1,29.76,29.58,10,2,15,0.85
2012-12-16,33,26,18,32,26,18,100,100,87,29.65,29.34,19,1,19,0.00
2012-12-17,36,34,31,36,34,31,100,100,92,29.34,29.12,7,1,9,0.13
2012-12-18,40,38,36,40,38,36,100,100,100,29.12,28.81,15,0,15,0.32
2012-12-19,39,36,34,39,36,31,100,98,83,29.47,28.87,9,0,10,0.00
2012-12-20,38,32,27,35,31,27,100,97,80,29.59,29.24,16,0,16,0.00
2012-12-21,49,38,32,45,37,32,100,95,72,29.24,28.30,42,5,42,0.22
2012-12-22,28,25,23,24,19,16,87,78,69,29.06,28.78,25,7,25,0.01
2012-12-23,33,25,18,31,22,16,100,88,71,29.21,29.06,17,4,20,0.00
2012-12-24,35,25,19,24,20,17,100,85,51,29.43,29.21,10,2,10,0.00
2012-12-25,24,19,11,22,18,11,100,97,84,29.69,29.36,15,2,15,0.00
2012-12-26,24,18,11,22,18,11,100,97,80,29.72,29.33,12,2,13,0.00
2012-12-27,26,22,18,26,22,18,100,100,100,29.33,28.96,24,7,25,0.00
2012-12-28,35,25,18,29,24,18,100,96,77,29.38,29.15,19,2,19,0.07
2012-12-29,25,20,15,25,18,-69,100,97,1,29.37,28.96,10,1,10,0.00
2012-12-30,25,17,11,19,14,9,100,91,63,29.42,28.97,18,2,18,0.00
2012-12-31,31,23,15,30,23,15,100,97,86,29.42,29.00,24,7,27,0.00
2013-1-1,32,19,5,31,14,3,100,81,60,29.32,29.01,19,4,25,0.00